Location: Lussas
(44.6119°N, 4.4726°E)
Time: 21:40:10
(UTC+00:00)

SAR-Lupe-1 - Visible Passes

Search period start: 16 April 2021 00:00
Search period end: 26 April 2021 00:00
Orbit: 482 x 483 km, 98.2° (Epoch: 30 March)

Date Brightness Start Highest point End Pass type
(mag) Time Alt. Az. Time Alt. Az. Time Alt. Az.
16 Apr 4.0 18:53:29 10° NNE 18:57:06 77° ESE 19:00:40 10° S visible
17 Apr 7.3 20:02:52 10° NNW 20:05:11 16° WNW 20:07:30 10° WSW visible
18 Apr 6.2 19:37:17 10° N 19:40:28 30° WNW 19:43:38 10° SW visible
19 Apr 4.6 19:12:06 10° N 19:15:40 63° WNW 19:19:11 10° SSW visible
20 Apr 7.8 20:22:37 10° NW 20:23:35 11° WNW 20:24:32 10° WNW visible
21 Apr 7.1 19:56:15 10° NNW 19:58:55 20° WNW 20:01:35 10° WSW visible
22 Apr 5.8 19:30:49 10° N 19:34:10 38° WNW 19:37:30 10° SW visible
23 Apr 4.2 19:05:43 10° NNE 19:09:19 81° WNW 19:12:53 10° SSW visible
24 Apr 7.5 20:15:33 10° NNW 20:17:18 13° WNW 20:19:04 10° W visible
25 Apr 6.7 19:49:39 10° NNW 19:52:37 24° WNW 19:55:32 10° WSW visible
